Terminal Aerodrome Forecast
Issued by NWS Boston, MA

Home | Current Version | Previous Version | Text Only | Print | Product List | Glossary On
Versions: 1 2 3 4 5 6 7 8 9 10 11 12 13 14 15 16 17 18 19 20 21 22 23 24 25 26 27 28 29 30 31 32 33 34 35 36 37 38 39 40 41 42 43 44 45
000
FTUS41 KBOX 200837 AAA
TAFPVD
TAF AMD
KPVD 200837Z 2009/2106 29004KT P6SM FEW150
     FM201600 24008KT P6SM SCT110
     FM201800 23010KT P6SM BKN100
     FM210300 21005KT P6SM BKN150
     FM210500 20004KT P6SM BKN025=

USA.gov is the U.S. government's official web portal to all federal, state and local government web resources and services.